Precipitable_Water
1.48 1.49 1.57 1.56 1.55 1.56 1.53 1.51 1.48 1.51 1.52 1.59 1.61 1.71 1.76 1.81 1.71 1.72 1.80 1.76 1.79 1.81 1.81 1.77 1.79 1.80 1.74 1.75 1.71 1.79 1.81 1.76 1.80 1.82 1.71 1.65 1.66 1.68 1.72 1.68 1.64 1.67 1.67 1.61 1.60 1.62 1.68 1.63 1.57 1.53 1.54 1.48 1.48 1.49 1.53 1.60 1.64 1.68 1.67 1.66 1.63 1.68 1.59 1.50 1.36 1.31 1.46 1.61 1.51 1.51 1.58 1.57 1.54 1.59 1.54 1.55 1.55 1.60 1.53 1.49 1.47 1.43 1.42 1.38 1.33
1.47 1.49 1.52 1.55 1.52 1.54 1.55 1.59 1.56 1.54 1.50 1.52 1.54 1.65 1.78 1.78 1.68 1.70 1.73 1.75 1.74 1.80 1.80 1.81 1.82 1.77 1.81 1.74 1.79 1.80 1.83 1.76 1.77 1.85 1.78 1.68 1.63 1.68 1.73 1.71 1.63 1.59 1.56 1.56 1.60 1.61 1.61 1.59 1.53 1.51 1.51 1.44 1.41 1.42 1.50 1.52 1.60 1.61 1.65 1.69 1.69 1.67 1.72 1.58 1.50 1.38 1.27 1.43 1.44 1.59 1.56 1.64 1.47 1.56 1.42 1.38 1.47 1.52 1.43 1.39 1.38 1.38 1.35 1.37 1.37
1.56 1.55 1.52 1.53 1.53 1.55 1.57 1.61 1.60 1.54 1.50 1.50 1.51 1.57 1.63 1.72 1.70 1.66 1.67 1.70 1.72 1.76 1.82 1.80 1.83 1.87 1.83 1.80 1.79 1.78 1.79 1.77 1.74 1.74 1.76 1.74 1.65 1.65 1.70 1.73 1.69 1.55 1.48 1.53 1.61 1.65 1.59 1.55 1.55 1.55 1.54 1.50 1.53 1.53 1.53 1.50 1.59 1.61 1.61 1.64 1.65 1.68 1.74 1.72 1.56 1.45 1.36 1.31 1.46 1.47 1.48 1.46 1.36 1.35 1.43 1.46 1.43 1.41 1.37 1.34 1.30 1.33 1.40 1.41 1.37
1.61 1.56 1.50 1.50 1.54 1.54 1.54 1.60 1.60 1.55 1.48 1.49 1.49 1.53 1.60 1.65 1.72 1.72 1.68 1.71 1.71 1.80 1.84 1.80 1.81 1.84 1.88 1.83 1.74 1.72 1.72 1.75 1.75 1.70 1.72 1.73 1.70 1.61 1.67 1.72 1.76 1.73 1.64 1.59 1.58 1.56 1.55 1.56 1.57 1.57 1.58 1.55 1.56 1.60 1.66 1.66 1.63 1.62 1.61 1.67 1.63 1.61 1.65 1.65 1.65 1.49 1.44 1.30 1.42 1.38 1.41 1.32 1.36 1.43 1.43 1.40 1.37 1.35 1.34 1.32 1.36 1.37 1.38 1.38 1.30
1.67 1.60 1.57 1.53 1.54 1.54 1.55 1.55 1.54 1.58 1.55 1.51 1.49 1.52 1.57 1.62 1.74 1.72 1.72 1.72 1.72 1.79 1.83 1.82 1.77 1.74 1.76 1.82 1.76 1.69 1.69 1.73 1.74 1.69 1.68 1.71 1.74 1.70 1.67 1.64 1.67 1.69 1.67 1.64 1.60 1.63 1.63 1.61 1.64 1.63 1.59 1.54 1.56 1.55 1.54 1.54 1.62 1.58 1.55 1.62 1.64 1.64 1.67 1.70 1.63 1.56 1.40 1.29 1.29 1.39 1.41 1.37 1.38 1.38 1.39 1.27 1.25 1.26 1.32 1.29 1.32 1.33 1.30 1.28 1.24
1.73 1.65 1.64 1.55 1.53 1.57 1.56 1.56 1.54 1.56 1.59 1.57 1.54 1.53 1.55 1.57 1.63 1.76 1.81 1.78 1.81 1.83 1.83 1.82 1.82 1.75 1.77 1.86 1.83 1.76 1.74 1.74 1.75 1.65 1.61 1.66 1.78 1.81 1.76 1.70 1.68 1.67 1.69 1.68 1.63 1.61 1.58 1.59 1.64 1.63 1.58 1.52 1.56 1.57 1.57 1.60 1.64 1.71 1.67 1.64 1.59 1.62 1.58 1.55 1.53 1.47 1.40 1.32 1.26 1.20 1.29 1.24 1.24 1.25 1.27 1.20 1.16 1.15 1.18 1.27 1.32 1.27 1.18 1.17 1.17
1.77 1.64 1.59 1.54 1.53 1.59 1.63 1.63 1.60 1.58 1.58 1.61 1.62 1.60 1.60 1.61 1.61 1.69 1.79 1.79 1.78 1.80 1.84 1.86 1.87 1.80 1.81 1.86 1.80 1.77 1.79 1.80 1.77 1.72 1.65 1.59 1.62 1.70 1.72 1.75 1.76 1.74 1.73 1.73 1.72 1.71 1.68 1.63 1.62 1.59 1.55 1.54 1.53 1.51 1.51 1.50 1.48 1.47 1.48 1.50 1.52 1.48 1.45 1.43 1.42 1.35 1.27 1.20 1.18 1.15 1.09 1.15 1.14 1.01 1.07 1.14 1.15 1.16 1.10 1.10 1.02 1.09 1.17 1.15 1.09
1.76 1.64 1.58 1.53 1.52 1.61 1.72 1.73 1.66 1.62 1.65 1.68 1.64 1.63 1.62 1.64 1.64 1.70 1.81 1.78 1.74 1.76 1.82 1.94 1.96 1.89 1.84 1.86 1.86 1.83 1.80 1.78 1.74 1.76 1.73 1.65 1.64 1.66 1.69 1.74 1.77 1.81 1.81 1.77 1.77 1.77 1.80 1.78 1.76 1.74 1.68 1.66 1.61 1.57 1.51 1.46 1.45 1.39 1.41 1.41 1.41 1.34 1.28 1.27 1.25 1.21 1.14 1.09 1.04 1.00 1.01 0.97 0.98 1.07 1.11 1.12 1.08 1.11 1.12 0.92 0.87 1.03 1.05 1.08 1.08
1.81 1.71 1.69 1.62 1.60 1.74 1.78 1.66 1.59 1.59 1.58 1.62 1.65 1.65 1.67 1.68 1.69 1.67 1.78 1.78 1.74 1.72 1.81 1.91 1.92 1.89 1.87 1.87 1.88 1.85 1.82 1.85 1.82 1.77 1.78 1.74 1.66 1.65 1.69 1.75 1.76 1.75 1.84 1.87 1.78 1.77 1.78 1.75 1.73 1.71 1.69 1.68 1.68 1.67 1.65 1.59 1.44 1.32 1.34 1.32 1.28 1.24 1.20 1.16 1.09 1.05 1.06 1.03 0.97 1.01 0.96 0.93 0.99 0.99 1.02 1.04 0.98 0.90 0.99 1.13 1.11 1.12 1.11 1.05 1.15
1.91 1.85 1.78 1.76 1.77 1.80 1.81 1.77 1.71 1.68 1.67 1.63 1.64 1.70 1.70 1.71 1.73 1.69 1.76 1.78 1.76 1.78 1.82 1.90 1.91 1.87 1.83 1.90 1.93 1.91 1.84 1.82 1.84 1.85 1.84 1.83 1.77 1.74 1.67 1.62 1.73 1.77 1.73 1.70 1.72 1.69 1.71 1.76 1.70 1.67 1.75 1.73 1.62 1.60 1.59 1.54 1.50 1.42 1.34 1.28 1.21 1.17 1.13 1.11 1.07 1.03 0.97 0.93 0.95 0.95 0.91 0.92 0.96 1.01 1.00 1.04 1.03 1.15 1.19 1.15 1.07 1.12 1.15 1.22 1.23
1.97 1.97 1.91 1.92 1.92 1.94 1.91 1.90 1.86 1.77 1.77 1.78 1.81 1.82 1.79 1.81 1.81 1.79 1.77 1.85 1.91 1.85 1.77 1.91 2.03 1.95 1.91 1.94 1.92 1.94 1.90 1.84 1.83 1.86 1.85 1.82 1.78 1.75 1.65 1.64 1.67 1.63 1.63 1.66 1.66 1.68 1.67 1.70 1.73 1.71 1.66 1.60 1.59 1.57 1.54 1.55 1.52 1.48 1.41 1.31 1.22 1.11 1.06 1.03 1.02 1.03 0.99 0.97 1.00 0.99 0.98 0.99 1.06 1.12 1.09 1.07 1.18 1.23 1.19 1.18 1.15 1.20 1.20 1.13 1.02
1.87 1.96 2.03 2.03 2.03 2.01 2.02 2.03 1.98 1.94 1.89 1.86 1.89 1.94 1.92 1.85 1.81 1.81 1.86 1.91 1.96 2.03 2.01 1.97 1.96 2.03 2.07 1.91 1.87 1.93 1.92 1.89 1.86 1.85 1.88 1.83 1.78 1.70 1.63 1.59 1.59 1.53 1.49 1.44 1.52 1.66 1.66 1.56 1.51 1.47 1.61 1.63 1.65 1.68 1.68 1.67 1.66 1.61 1.52 1.42 1.32 1.27 1.25 1.17 1.09 1.07 1.08 1.06 1.07 1.12 1.13 1.11 1.12 1.16 1.19 1.24 1.27 1.22 1.25 1.30 1.32 1.28 1.21 1.14 1.13
1.82 1.87 1.92 1.95 2.01 2.06 2.09 2.06 2.05 2.04 2.03 2.00 2.00 1.99 1.99 1.97 1.89 1.86 1.86 1.89 1.96 2.02 1.99 1.92 1.95 1.99 1.95 1.80 1.84 1.95 1.97 1.94 1.88 1.84 1.87 1.82 1.74 1.63 1.48 1.44 1.37 1.35 1.38 1.39 1.37 1.45 1.58 1.58 1.53 1.53 1.60 1.67 1.71 1.67 1.69 1.61 1.58 1.54 1.49 1.47 1.44 1.39 1.32 1.31 1.33 1.29 1.28 1.22 1.18 1.14 1.14 1.16 1.15 1.24 1.34 1.34 1.40 1.34 1.39 1.34 1.34 1.32 1.31 1.24 1.23
1.86 1.89 1.96 2.01 2.03 2.03 2.04 2.04 2.04 2.05 2.10 2.08 2.07 2.02 1.99 2.02 2.06 2.09 2.03 1.98 1.92 1.93 1.92 1.93 2.03 1.97 1.91 1.86 1.83 1.90 1.92 1.92 1.96 1.93 1.88 1.85 1.77 1.68 1.55 1.45 1.36 1.27 1.30 1.35 1.34 1.36 1.41 1.40 1.45 1.54 1.64 1.67 1.64 1.58 1.58 1.66 1.57 1.48 1.45 1.46 1.46 1.49 1.52 1.52 1.50 1.47 1.45 1.38 1.30 1.18 1.25 1.31 1.25 1.34 1.48 1.57 1.50 1.41 1.36 1.32 1.38 1.34 1.31 1.29 1.36
1.94 1.99 2.00 2.03 2.08 2.09 2.09 2.10 2.09 2.11 2.13 2.14 2.13 2.11 2.12 2.13 2.12 2.15 2.11 2.07 2.03 2.01 2.00 1.97 2.02 2.03 1.97 1.91 1.85 1.79 1.69 1.77 1.88 1.88 1.82 1.83 1.80 1.72 1.66 1.57 1.46 1.34 1.32 1.38 1.41 1.37 1.34 1.40 1.49 1.57 1.62 1.63 1.70 1.70 1.65 1.70 1.65 1.57 1.51 1.50 1.54 1.62 1.63 1.59 1.58 1.56 1.54 1.50 1.40 1.35 1.38 1.45 1.47 1.55 1.63 1.69 1.62 1.55 1.53 1.50 1.51 1.51 1.51 1.55 1.53
1.90 1.97 1.98 2.00 2.02 2.06 2.07 2.07 2.06 2.08 2.11 2.13 2.13 2.13 2.15 2.15 2.11 2.09 2.09 2.09 2.15 2.20 2.19 2.13 2.04 2.03 2.03 1.97 1.87 1.82 1.83 1.81 1.86 1.87 1.81 1.75 1.72 1.68 1.64 1.58 1.52 1.43 1.34 1.31 1.42 1.55 1.61 1.52 1.41 1.39 1.43 1.50 1.54 1.64 1.65 1.64 1.60 1.53 1.46 1.48 1.48 1.53 1.52 1.53 1.55 1.57 1.61 1.65 1.65 1.63 1.61 1.62 1.64 1.64 1.66 1.68 1.70 1.71 1.71 1.72 1.70 1.65 1.58 1.48 1.39
1.81 1.90 1.97 2.03 2.05 2.07 2.08 2.05 2.02 2.02 2.05 2.09 2.12 2.14 2.13 2.14 2.14 2.15 2.08 2.09 2.11 2.14 2.17 2.18 2.16 2.09 2.04 2.00 1.93 1.89 1.90 1.91 1.89 1.92 1.88 1.78 1.68 1.65 1.63 1.61 1.56 1.48 1.41 1.40 1.44 1.40 1.42 1.51 1.52 1.49 1.51 1.54 1.62 1.65 1.68 1.68 1.68 1.65 1.61 1.53 1.52 1.48 1.42 1.47 1.49 1.50 1.51 1.58 1.62 1.68 1.73 1.75 1.76 1.78 1.82 1.88 1.89 1.89 1.81 1.65 1.58 1.67 1.58 1.48 1.50
1.79 1.82 1.87 1.96 2.00 2.02 2.03 2.03 2.00 2.03 2.06 2.06 2.05 2.06 2.09 2.11 2.11 2.17 2.12 2.11 2.12 2.16 2.17 2.14 2.14 2.16 2.14 2.09 2.03 1.96 1.97 2.00 2.01 2.02 2.02 1.92 1.78 1.66 1.65 1.61 1.56 1.51 1.47 1.48 1.44 1.39 1.38 1.40 1.40 1.41 1.44 1.50 1.58 1.67 1.73 1.77 1.68 1.58 1.54 1.51 1.40 1.32 1.39 1.52 1.58 1.67 1.68 1.68 1.70 1.74 1.78 1.80 1.81 1.84 1.91 1.96 1.97 1.94 1.79 1.59 1.70 1.74 1.63 1.64 1.55
1.68 1.70 1.76 1.86 1.94 1.98 2.00 1.98 1.98 2.01 2.01 2.04 2.05 2.03 2.04 2.04 2.11 2.15 2.15 2.14 2.13 2.14 2.14 2.10 2.11 2.17 2.21 2.23 2.22 2.10 2.03 2.05 2.10 2.11 2.11 2.06 1.92 1.82 1.78 1.70 1.61 1.60 1.59 1.58 1.59 1.54 1.51 1.48 1.50 1.51 1.53 1.56 1.60 1.62 1.70 1.72 1.61 1.54 1.49 1.41 1.34 1.35 1.50 1.60 1.61 1.62 1.63 1.63 1.69 1.74 1.74 1.78 1.81 1.82 1.84 1.89 1.96 2.00 1.97 1.89 1.90 1.83 1.72 1.72 1.70
1.66 1.70 1.75 1.79 1.81 1.88 1.93 1.95 1.95 1.96 1.96 1.99 2.01 1.99 2.03 2.07 2.09 2.11 2.11 2.15 2.13 2.14 2.14 2.12 2.10 2.17 2.26 2.28 2.29 2.23 2.09 2.04 2.10 2.14 2.13 2.07 2.02 1.99 2.00 1.89 1.78 1.75 1.79 1.75 1.69 1.67 1.67 1.65 1.65 1.68 1.69 1.67 1.67 1.72 1.81 1.88 1.83 1.77 1.66 1.55 1.50 1.49 1.64 1.64 1.64 1.64 1.61 1.61 1.61 1.63 1.63 1.70 1.75 1.80 1.86 1.93 1.99 2.03 2.05 2.05 2.00 1.94 1.84 1.75 1.71
1.62 1.66 1.68 1.66 1.68 1.73 1.82 1.85 1.86 1.92 1.96 1.97 2.03 2.01 2.02 1.98 2.01 2.00 2.00 2.03 2.02 1.99 1.97 2.00 2.05 2.12 2.23 2.18 2.18 2.21 2.15 2.04 2.06 2.13 2.14 2.07 2.05 2.06 2.04 2.00 1.98 1.93 1.89 1.88 1.87 1.79 1.77 1.77 1.80 1.78 1.75 1.75 1.79 1.82 1.84 1.89 1.92 1.90 1.84 1.73 1.71 1.73 1.79 1.72 1.70 1.70 1.65 1.65 1.65 1.65 1.66 1.69 1.73 1.80 1.86 1.90 1.94 1.99 2.03 2.06 2.08 2.07 1.98 1.87 1.79
1.57 1.55 1.55 1.60 1.61 1.62 1.66 1.76 1.82 1.86 1.93 1.97 1.92 1.92 1.95 1.99 1.95 1.89 1.85 1.86 1.84 1.86 1.86 1.87 1.88 2.00 2.12 2.19 2.20 2.21 2.18 2.07 2.04 2.06 2.03 2.00 1.97 1.97 1.96 1.96 1.97 1.96 1.92 1.91 1.92 1.88 1.81 1.77 1.76 1.77 1.76 1.74 1.75 1.81 1.85 1.88 1.90 1.91 1.90 1.88 1.86 1.82 1.78 1.79 1.78 1.76 1.75 1.73 1.72 1.72 1.75 1.76 1.75 1.80 1.83 1.87 1.90 1.97 2.04 2.07 2.10 2.09 2.10 2.06 1.94
1.34 1.42 1.45 1.48 1.53 1.56 1.62 1.65 1.66 1.72 1.76 1.84 1.88 1.84 1.89 1.89 1.88 1.86 1.85 1.82 1.81 1.77 1.76 1.77 1.81 1.92 2.07 2.08 2.07 2.07 2.07 2.05 2.01 1.95 1.91 1.88 1.87 1.89 1.90 1.93 1.96 1.96 1.89 1.86 1.85 1.87 1.90 1.87 1.85 1.81 1.75 1.74 1.74 1.77 1.81 1.84 1.86 1.87 1.88 1.88 1.83 1.78 1.77 1.74 1.72 1.70 1.71 1.75 1.78 1.77 1.79 1.79 1.77 1.77 1.80 1.81 1.89 1.96 1.97 1.99 2.03 2.06 2.08 2.13 2.13
1.12 1.17 1.26 1.25 1.28 1.39 1.56 1.58 1.58 1.54 1.56 1.66 1.75 1.78 1.77 1.77 1.77 1.81 1.81 1.76 1.73 1.70 1.70 1.69 1.73 1.79 1.80 1.84 1.94 1.92 1.94 1.95 1.90 1.86 1.82 1.82 1.79 1.75 1.75 1.77 1.83 1.87 1.92 1.93 1.95 1.90 1.86 1.83 1.78 1.73 1.69 1.67 1.70 1.73 1.78 1.83 1.86 1.87 1.89 1.86 1.79 1.75 1.71 1.69 1.69 1.74 1.77 1.78 1.78 1.80 1.81 1.86 1.86 1.81 1.81 1.87 1.90 1.93 1.96 1.98 1.99 2.01 2.02 2.04 2.03
1.12 1.09 1.10 1.14 1.18 1.21 1.26 1.39 1.47 1.51 1.45 1.49 1.51 1.60 1.68 1.68 1.64 1.66 1.66 1.63 1.65 1.67 1.70 1.71 1.69 1.70 1.69 1.63 1.73 1.84 1.82 1.84 1.80 1.79 1.78 1.74 1.71 1.70 1.69 1.67 1.66 1.75 1.82 1.88 1.90 1.86 1.72 1.64 1.63 1.64 1.63 1.64 1.67 1.69 1.67 1.66 1.67 1.69 1.69 1.72 1.77 1.77 1.78 1.80 1.81 1.87 1.86 1.83 1.82 1.82 1.83 1.88 1.91 1.93 1.93 1.89 1.86 1.87 1.87 1.87 1.89 1.90 1.90 1.87 1.84
1.09 1.07 1.04 0.97 1.10 1.22 1.19 1.15 1.20 1.34 1.41 1.43 1.46 1.47 1.51 1.51 1.53 1.53 1.46 1.47 1.52 1.57 1.58 1.60 1.63 1.66 1.63 1.67 1.68 1.73 1.80 1.80 1.75 1.71 1.72 1.73 1.72 1.71 1.73 1.73 1.70 1.73 1.76 1.71 1.69 1.62 1.57 1.55 1.53 1.53 1.58 1.60 1.61 1.63 1.71 1.74 1.74 1.73 1.71 1.72 1.76 1.79 1.83 1.85 1.84 1.82 1.80 1.83 1.84 1.81 1.81 1.81 1.79 1.78 1.76 1.70 1.60 1.58 1.60 1.55 1.45 1.37 1.33 1.29 1.26
1.15 1.10 1.07 1.06 1.07 1.12 1.15 1.22 1.25 1.20 1.23 1.35 1.37 1.36 1.42 1.42 1.42 1.41 1.37 1.34 1.35 1.39 1.39 1.44 1.48 1.52 1.55 1.56 1.57 1.66 1.69 1.68 1.63 1.59 1.57 1.54 1.51 1.54 1.59 1.64 1.64 1.55 1.58 1.52 1.43 1.37 1.34 1.36 1.44 1.54 1.60 1.63 1.57 1.62 1.60 1.61 1.58 1.60 1.63 1.68 1.74 1.78 1.82 1.86 1.85 1.81 1.73 1.68 1.61 1.56 1.54 1.50 1.40 1.30 1.20 1.21 1.22 1.24 1.24 1.16 1.11 1.07 1.07 1.11 1.09
1.07 1.08 1.09 1.07 1.08 1.07 1.02 1.11 1.18 1.14 1.07 1.18 1.20 1.20 1.30 1.37 1.29 1.28 1.27 1.22 1.21 1.29 1.36 1.38 1.40 1.40 1.41 1.46 1.51 1.52 1.51 1.49 1.50 1.49 1.48 1.46 1.44 1.42 1.40 1.37 1.34 1.31 1.24 1.19 1.14 1.11 1.08 1.10 1.22 1.34 1.37 1.35 1.30 1.28 1.32 1.35 1.44 1.43 1.45 1.46 1.43 1.42 1.55 1.63 1.63 1.52 1.44 1.37 1.31 1.28 1.23 1.22 1.17 1.11 1.13 1.14 1.17 1.18 1.18 1.10 1.02 0.96 0.99 0.98 0.93
0.98 1.03 1.06 1.11 1.11 1.18 1.17 0.99 1.17 1.22 1.23 1.22 1.16 1.11 1.14 1.13 1.03 1.05 1.18 1.20 1.18 1.18 1.23 1.23 1.25 1.32 1.35 1.34 1.33 1.32 1.29 1.24 1.26 1.28 1.26 1.23 1.17 1.11 1.05 1.03 1.00 1.01 1.02 0.97 0.91 0.87 0.84 0.87 1.00 1.09 1.20 1.21 1.15 1.14 1.13 1.14 1.21 1.13 1.14 1.12 1.07 1.15 1.20 1.18 1.13 1.10 1.10 1.11 1.09 1.10 1.11 1.08 1.02 1.04 1.07 1.08 1.11 1.11 1.14 1.06 1.05 1.03 1.03 1.01 0.95
1.06 0.89 0.94 0.94 1.01 1.08 1.18 1.16 1.14 1.14 1.17 1.23 1.17 1.10 1.05 0.99 0.98 0.89 0.88 0.98 1.02 1.08 1.10 1.08 1.08 1.12 1.15 1.15 1.18 1.11 1.08 1.10 1.11 1.07 1.05 1.03 1.00 0.94 0.88 0.86 0.85 0.84 0.87 0.91 0.87 0.77 0.81 0.90 0.94 1.08 1.13 1.11 1.02 1.01 1.01 1.00 1.02 1.01 1.03 1.04 1.04 1.06 1.08 1.06 1.05 1.03 1.03 1.00 0.99 0.95 0.92 0.88 0.91 0.97 0.97 0.93 0.93 0.94 0.96 0.99 0.98 0.97 0.88 0.89 0.90
0.98 0.95 0.90 0.82 0.96 0.99 0.99 1.00 1.01 1.05 1.10 1.13 1.11 1.06 1.02 1.09 1.09 1.04 0.94 0.85 0.79 0.74 0.80 0.84 0.87 0.90 0.97 0.91 0.93 0.96 0.95 0.94 0.91 0.89 0.85 0.83 0.82 0.80 0.79 0.80 0.80 0.81 0.85 0.83 0.79 0.77 0.81 0.86 0.96 1.03 1.05 1.03 1.00 1.05 1.03 1.00 1.00 0.97 0.96 0.96 0.94 0.95 0.97 0.93 0.91 0.92 0.91 0.88 0.85 0.80 0.80 0.82 0.83 0.81 0.76 0.74 0.74 0.76 0.78 0.80 0.76 0.73 0.74 0.76 0.75
0.96 0.94 0.93 0.88 0.81 0.85 0.91 0.88 0.94 0.89 0.90 0.95 0.93 0.99 1.02 0.99 1.01 1.02 0.94 0.91 0.87 0.80 0.75 0.72 0.71 0.69 0.74 0.81 0.79 0.76 0.76 0.74 0.72 0.74 0.76 0.76 0.75 0.76 0.76 0.77 0.77 0.78 0.77 0.75 0.66 0.73 0.81 0.85 0.89 0.94 0.98 0.97 0.97 0.95 0.95 0.95 0.95 0.91 0.88 0.85 0.81 0.84 0.84 0.81 0.81 0.84 0.83 0.79 0.75 0.75 0.76 0.79 0.77 0.73 0.69 0.69 0.69 0.68 0.68 0.64 0.64 0.63 0.63 0.64 0.65
0.95 0.94 0.90 0.88 0.86 0.82 0.80 0.83 0.83 0.86 0.82 0.83 0.82 0.88 0.91 0.94 0.93 0.87 0.89 0.95 0.91 0.87 0.83 0.81 0.79 0.78 0.76 0.76 0.75 0.72 0.71 0.71 0.71 0.69 0.70 0.71 0.71 0.72 0.72 0.73 0.72 0.71 0.66 0.62 0.60 0.63 0.70 0.76 0.79 0.88 0.90 0.88 0.90 0.90 0.89 0.88 0.86 0.85 0.83 0.80 0.79 0.84 0.82 0.81 0.84 0.83 0.80 0.78 0.75 0.73 0.77 0.79 0.76 0.72 0.73 0.73 0.70 0.68 0.68 0.65 0.64 0.64 0.64 0.61 0.60
0.82 0.81 0.85 0.89 0.85 0.80 0.81 0.74 0.72 0.77 0.78 0.77 0.75 0.78 0.79 0.82 0.79 0.79 0.81 0.85 0.88 0.88 0.87 0.85 0.83 0.80 0.78 0.76 0.75 0.74 0.72 0.69 0.68 0.66 0.64 0.63 0.64 0.63 0.64 0.62 0.62 0.64 0.64 0.64 0.63 0.61 0.68 0.72 0.74 0.77 0.81 0.83 0.85 0.86 0.85 0.83 0.82 0.80 0.78 0.79 0.79 0.81 0.81 0.82 0.82 0.79 0.76 0.74 0.72 0.71 0.75 0.75 0.73 0.72 0.71 0.71 0.73 0.72 0.70 0.69 0.68 0.66 0.65 0.64 0.62
0.82 0.79 0.81 0.85 0.85 0.84 0.79 0.75 0.72 0.69 0.66 0.64 0.67 0.69 0.68 0.69 0.72 0.78 0.79 0.77 0.78 0.79 0.76 0.81 0.82 0.80 0.76 0.76 0.74 0.71 0.67 0.63 0.61 0.61 0.60 0.60 0.60 0.60 0.58 0.58 0.66 0.71 0.77 0.78 0.76 0.73 0.67 0.71 0.70 0.72 0.75 0.77 0.78 0.78 0.78 0.78 0.78 0.77 0.77 0.77 0.77 0.77 0.77 0.77 0.77 0.76 0.73 0.72 0.72 0.73 0.73 0.73 0.76 0.77 0.74 0.72 0.71 0.69 0.69 0.69 0.69 0.69 0.67 0.67 0.66
0.91 0.88 0.86 0.82 0.81 0.82 0.81 0.79 0.76 0.67 0.64 0.66 0.68 0.66 0.69 0.71 0.73 0.75 0.76 0.79 0.78 0.73 0.77 0.84 0.81 0.80 0.79 0.79 0.73 0.71 0.65 0.64 0.64 0.63 0.62 0.62 0.62 0.62 0.53 0.57 0.68 0.74 0.77 0.87 0.85 0.86 0.82 0.78 0.75 0.75 0.74 0.72 0.72 0.74 0.75 0.75 0.75 0.75 0.76 0.75 0.73 0.74 0.74 0.73 0.71 0.69 0.70 0.72 0.74 0.74 0.73 0.75 0.76 0.74 0.73 0.72 0.71 0.70 0.69 0.68 0.68 0.67 0.65 0.63 0.62
0.91 0.89 0.85 0.80 0.79 0.79 0.84 0.87 0.88 0.85 0.83 0.82 0.77 0.79 0.77 0.74 0.71 0.72 0.72 0.72 0.70 0.67 0.64 0.77 0.80 0.74 0.82 0.84 0.75 0.72 0.68 0.70 0.70 0.72 0.69 0.70 0.69 0.72 0.73 0.75 0.75 0.79 0.76 0.80 0.81 0.85 0.85 0.86 0.86 0.84 0.81 0.78 0.77 0.76 0.75 0.75 0.74 0.74 0.75 0.74 0.73 0.71 0.70 0.69 0.70 0.70 0.70 0.71 0.74 0.74 0.72 0.71 0.71 0.71 0.70 0.67 0.67 0.67 0.67 0.66 0.64 0.63 0.62 0.61 0.59
0.88 0.82 0.80 0.75 0.78 0.83 0.83 0.84 0.83 0.82 0.87 0.90 0.90 0.89 0.84 0.81 0.75 0.73 0.66 0.66 0.61 0.62 0.69 0.70 0.70 0.76 0.75 0.75 0.70 0.68 0.64 0.65 0.72 0.73 0.79 0.77 0.79 0.82 0.81 0.84 0.82 0.80 0.79 0.83 0.88 0.85 0.82 0.85 0.86 0.85 0.85 0.85 0.84 0.83 0.81 0.80 0.79 0.77 0.74 0.72 0.71 0.70 0.70 0.69 0.69 0.69 0.69 0.71 0.71 0.70 0.69 0.69 0.70 0.70 0.69 0.66 0.64 0.64 0.63 0.62 0.60 0.58 0.57 0.57 0.56
0.92 0.88 0.83 0.77 0.76 0.78 0.79 0.80 0.80 0.79 0.82 0.81 0.85 0.87 0.87 0.86 0.87 0.84 0.80 0.78 0.79 0.78 0.76 0.73 0.73 0.72 0.72 0.71 0.67 0.64 0.62 0.57 0.56 0.61 0.69 0.75 0.80 0.79 0.80 0.79 0.79 0.79 0.79 0.80 0.81 0.82 0.81 0.81 0.83 0.84 0.84 0.86 0.84 0.82 0.82 0.81 0.81 0.79 0.77 0.75 0.73 0.72 0.70 0.69 0.68 0.67 0.67 0.67 0.67 0.68 0.68 0.67 0.68 0.69 0.68 0.66 0.64 0.63 0.61 0.59 0.59 0.58 0.55 0.54 0.56
0.84 0.86 0.85 0.81 0.82 0.78 0.76 0.77 0.79 0.83 0.84 0.82 0.82 0.80 0.80 0.81 0.80 0.78 0.81 0.81 0.83 0.81 0.79 0.77 0.77 0.73 0.71 0.69 0.65 0.62 0.56 0.52 0.53 0.59 0.64 0.68 0.71 0.73 0.74 0.74 0.75 0.75 0.74 0.75 0.76 0.77 0.79 0.80 0.82 0.82 0.84 0.86 0.86 0.85 0.84 0.82 0.80 0.79 0.78 0.76 0.73 0.71 0.70 0.71 0.70 0.69 0.68 0.68 0.67 0.67 0.67 0.67 0.67 0.66 0.64 0.64 0.63 0.62 0.61 0.60 0.59 0.59 0.58 0.56 0.56
0.86 0.88 0.87 0.84 0.83 0.79 0.83 0.83 0.83 0.82 0.80 0.78 0.76 0.76 0.80 0.81 0.80 0.79 0.79 0.79 0.79 0.78 0.78 0.79 0.79 0.77 0.75 0.72 0.69 0.65 0.60 0.55 0.57 0.62 0.66 0.66 0.68 0.67 0.66 0.68 0.70 0.71 0.73 0.73 0.74 0.76 0.77 0.78 0.78 0.79 0.82 0.83 0.84 0.84 0.84 0.83 0.81 0.79 0.78 0.76 0.74 0.72 0.72 0.72 0.71 0.69 0.68 0.68 0.67 0.65 0.65 0.64 0.64 0.63 0.60 0.62 0.63 0.62 0.61 0.60 0.59 0.57 0.57 0.56 0.56
0.84 0.84 0.84 0.86 0.85 0.83 0.81 0.84 0.83 0.82 0.80 0.77 0.79 0.78 0.78 0.78 0.79 0.79 0.78 0.77 0.76 0.76 0.74 0.76 0.78 0.76 0.74 0.71 0.68 0.66 0.64 0.66 0.67 0.67 0.69 0.69 0.70 0.69 0.68 0.66 0.66 0.68 0.71 0.71 0.72 0.72 0.74 0.75 0.75 0.76 0.77 0.79 0.80 0.81 0.81 0.79 0.79 0.77 0.75 0.74 0.72 0.71 0.69 0.67 0.67 0.66 0.64 0.63 0.63 0.63 0.63 0.63 0.63 0.64 0.63 0.63 0.62 0.61 0.60 0.59 0.58 0.57 0.55 0.54 0.53
0.87 0.85 0.83 0.84 0.84 0.83 0.84 0.85 0.84 0.79 0.79 0.79 0.79 0.79 0.77 0.75 0.74 0.74 0.74 0.75 0.75 0.74 0.73 0.74 0.76 0.80 0.74 0.71 0.69 0.68 0.69 0.69 0.69 0.69 0.69 0.69 0.69 0.69 0.70 0.70 0.69 0.68 0.67 0.69 0.72 0.72 0.72 0.72 0.72 0.72 0.73 0.74 0.75 0.76 0.76 0.75 0.75 0.74 0.72 0.71 0.69 0.68 0.65 0.64 0.64 0.63 0.63 0.63 0.62 0.62 0.61 0.61 0.61 0.61 0.60 0.60 0.59 0.57 0.55 0.54 0.52 0.52 0.52 0.53 0.53
0.91 0.88 0.85 0.83 0.82 0.84 0.84 0.81 0.81 0.81 0.80 0.79 0.77 0.75 0.73 0.71 0.70 0.71 0.71 0.71 0.71 0.71 0.72 0.72 0.72 0.72 0.72 0.71 0.71 0.70 0.69 0.70 0.69 0.69 0.69 0.70 0.70 0.70 0.71 0.71 0.71 0.70 0.68 0.67 0.68 0.69 0.67 0.67 0.67 0.69 0.70 0.71 0.71 0.72 0.72 0.71 0.71 0.70 0.68 0.66 0.64 0.63 0.63 0.62 0.62 0.62 0.62 0.61 0.60 0.60 0.60 0.60 0.60 0.59 0.57 0.57 0.57 0.55 0.54 0.53 0.53 0.53 0.53 0.53 0.52
0.90 0.87 0.86 0.85 0.84 0.82 0.81 0.83 0.81 0.79 0.79 0.75 0.75 0.74 0.73 0.70 0.69 0.69 0.68 0.67 0.67 0.68 0.68 0.68 0.68 0.68 0.68 0.67 0.67 0.66 0.66 0.67 0.67 0.67 0.66 0.67 0.67 0.67 0.70 0.70 0.71 0.69 0.68 0.67 0.68 0.67 0.67 0.66 0.65 0.65 0.65 0.66 0.67 0.68 0.68 0.68 0.69 0.68 0.64 0.64 0.61 0.59 0.59 0.59 0.60 0.61 0.60 0.58 0.56 0.55 0.54 0.54 0.54 0.54 0.54 0.53 0.52 0.51 0.49 0.48 0.49 0.49 0.49 0.49 0.49
0.85 0.83 0.82 0.82 0.83 0.84 0.83 0.82 0.83 0.82 0.81 0.78 0.75 0.73 0.72 0.71 0.71 0.69 0.68 0.67 0.67 0.64 0.63 0.62 0.62 0.63 0.63 0.63 0.64 0.64 0.64 0.63 0.63 0.63 0.65 0.66 0.66 0.66 0.67 0.68 0.69 0.69 0.68 0.68 0.68 0.66 0.66 0.66 0.65 0.65 0.65 0.65 0.65 0.66 0.66 0.66 0.66 0.62 0.62 0.60 0.59 0.58 0.58 0.59 0.60 0.57 0.55 0.53 0.53 0.53 0.52 0.52 0.51 0.50 0.49 0.48 0.47 0.47 0.46 0.47 0.47 0.47 0.47 0.47 0.48
0.80 0.79 0.78 0.78 0.78 0.79 0.80 0.82 0.82 0.81 0.79 0.76 0.74 0.72 0.70 0.69 0.68 0.68 0.67 0.66 0.63 0.61 0.58 0.58 0.58 0.58 0.59 0.61 0.62 0.62 0.61 0.60 0.61 0.61 0.62 0.64 0.63 0.64 0.64 0.65 0.65 0.66 0.66 0.66 0.66 0.65 0.64 0.64 0.64 0.64 0.63 0.64 0.64 0.63 0.63 0.63 0.60 0.59 0.59 0.57 0.56 0.56 0.56 0.56 0.55 0.53 0.52 0.52 0.52 0.51 0.49 0.48 0.47 0.46 0.47 0.47 0.47 0.47 0.48 0.48 0.49 0.49 0.50 0.50 0.50
0.78 0.77 0.74 0.75 0.76 0.77 0.78 0.78 0.77 0.78 0.76 0.72 0.71 0.71 0.70 0.68 0.66 0.65 0.64 0.62 0.61 0.60 0.59 0.59 0.58 0.58 0.58 0.58 0.58 0.58 0.57 0.57 0.58 0.58 0.59 0.59 0.59 0.60 0.60 0.61 0.61 0.62 0.62 0.63 0.64 0.63 0.63 0.62 0.62 0.62 0.62 0.62 0.62 0.61 0.62 0.59 0.59 0.57 0.56 0.56 0.55 0.54 0.54 0.54 0.53 0.52 0.52 0.51 0.50 0.49 0.47 0.46 0.45 0.45 0.46 0.47 0.47 0.48 0.48 0.49 0.50 0.51 0.51 0.52 0.53
0.77 0.77 0.76 0.74 0.73 0.72 0.71 0.72 0.72 0.70 0.71 0.72 0.71 0.70 0.68 0.66 0.65 0.63 0.62 0.60 0.58 0.57 0.56 0.57 0.57 0.57 0.57 0.56 0.56 0.56 0.56 0.55 0.55 0.54 0.55 0.55 0.55 0.56 0.56 0.56 0.57 0.56 0.57 0.57 0.59 0.60 0.61 0.61 0.61 0.60 0.60 0.60 0.60 0.60 0.59 0.57 0.56 0.55 0.54 0.54 0.53 0.53 0.52 0.52 0.52 0.51 0.50 0.49 0.48 0.47 0.46 0.45 0.44 0.44 0.45 0.46 0.47 0.49 0.50 0.51 0.51 0.52 0.53 0.54 0.54
0.77 0.75 0.74 0.73 0.72 0.71 0.70 0.68 0.67 0.66 0.64 0.63 0.62 0.62 0.63 0.64 0.63 0.62 0.62 0.59 0.57 0.56 0.56 0.55 0.54 0.54 0.54 0.54 0.54 0.55 0.55 0.54 0.53 0.53 0.54 0.54 0.54 0.54 0.54 0.53 0.53 0.53 0.53 0.52 0.53 0.55 0.56 0.57 0.57 0.57 0.57 0.56 0.56 0.56 0.57 0.54 0.53 0.52 0.52 0.51 0.51 0.50 0.50 0.49 0.49 0.48 0.48 0.47 0.46 0.44 0.43 0.43 0.43 0.44 0.46 0.47 0.48 0.49 0.50 0.51 0.52 0.53 0.54 0.54 0.55
0.69 0.69 0.69 0.68 0.67 0.67 0.66 0.65 0.62 0.60 0.58 0.57 0.56 0.55 0.55 0.56 0.58 0.59 0.58 0.56 0.55 0.55 0.54 0.54 0.54 0.53 0.52 0.51 0.51 0.51 0.51 0.52 0.52 0.52 0.52 0.52 0.52 0.52 0.51 0.51 0.51 0.50 0.50 0.50 0.51 0.51 0.52 0.52 0.52 0.52 0.52 0.52 0.52 0.52 0.53 0.51 0.51 0.51 0.50 0.49 0.49 0.48 0.48 0.47 0.47 0.46 0.46 0.45 0.44 0.43 0.43 0.43 0.43 0.44 0.46 0.47 0.48 0.49 0.51 0.53 0.54 0.55 0.56 0.57 0.58
Wind_Speed
17 17 17 16 16 16 16 16 16 15 14 14 13 13 12 12 12 11 11 10 10 9 9 9 8 8 8 8 8 7 7 7 7 7 6 6 6 5 5 5 5 5 5 5 5 5 5 5 6 6 6 6 6 6 6 6 6 6 6 6 6 6 6 6 7 8 8 8 9 9 9 9 10 10 10 11 11 11 12 13 13 14 14 15 15
17 17 17 17 17 17 17 17 16 16 15 15 14 13 13 13 13 12 12 12 11 11 10 10 9 9 9 9 8 8 8 8 7 7 7 7 7 6 6 6 6 6 6 6 6 6 6 6 6 6 6 6 6 6 6 6 6 6 6 6 6 6 6 6 6 7 8 9 9 9 9 9 10 10 10 11 11 11 12 13 13 13 14 14 14
17 17 17 17 17 17 17 17 17 17 16 16 15 15 14 14 13 13 13 12 12 12 12 11 10 10 10 10 9 9 9 9 8 8 8 8 7 7 7 6 6 6 6 6 6 6 6 6 6 6 6 6 6 6 6 6 6 6 6 6 6 6 6 6 6 7 8 8 8 9 9 10 10 10 11 11 11 12 12 13 13 13 13 13 14
18 17 17 17 17 17 17 17 17 17 17 17 16 16 15 15 14 14 14 13 13 13 13 13 12 11 11 11 10 10 10 10 10 9 9 9 9 8 8 8 7 7 7 6 6 6 6 6 6 6 6 6 6 6 6 6 6 6 6 6 6 6 6 6 7 7 8 8 9 9 10 10 11 11 11 11 12 12 12 12 13 13 13 13 14
18 18 18 17 17 17 17 17 17 17 17 17 17 17 16 16 15 15 15 14 14 14 14 14 14 13 13 12 12 12 11 11 11 11 10 10 10 9 9 9 8 8 8 7 7 7 7 7 7 6 6 6 6 6 6 6 6 6 6 6 6 7 7 7 7 8 8 9 9 10 10 11 11 11 11 12 12 12 12 12 13 13 13 14 14
19 19 18 18 17 18 18 17 18 17 17 17 17 17 17 16 16 16 16 15 15 15 15 14 14 15 15 14 13 13 13 12 12 12 12 11 11 11 10 10 10 9 9 9 9 8 8 8 8 8 7 7 7 7 7 7 7 7 7 7 7 8 8 8 9 9 9 10 10 11 11 11 11 11 12 12 13 13 13 13 13 13 14 14 14
21 20 20 19 18 18 18 18 18 17 17 17 17 17 17 17 17 16 16 16 16 16 16 16 15 15 16 15 15 14 14 14 13 13 13 12 12 12 12 11 11 11 10 10 10 10 9 9 9 9 9 8 8 8 8 8 8 8 8 8 8 9 9 9 9 10 10 11 11 11 11 12 12 12 12 13 13 13 13 13 14 14 14 13 14
21 21 21 21 20 20 20 19 18 18 18 18 17 17 17 17 17 17 16 17 17 16 16 16 16 16 16 16 16 15 15 15 14 14 14 14 13 13 13 13 12 12 12 11 11 11 11 11 11 10 10 10 9 9 9 9 9 9 9 9 9 10 10 10 10 11 11 11 12 12 13 13 13 13 13 13 13 14 14 14 14 14 14 15 15
22 21 21 22 21 21 21 20 19 19 19 19 18 18 18 17 17 17 17 17 17 17 17 17 17 17 16 16 17 16 16 16 16 16 15 15 14 14 14 14 13 13 13 13 13 12 12 12 12 12 12 12 12 11 11 10 10 11 11 11 11 11 11 12 12 12 12 13 13 13 14 14 14 14 14 14 14 15 14 14 14 15 16 17 17
22 22 22 22 22 22 21 21 20 20 20 20 19 19 18 18 17 17 17 17 17 18 18 18 18 18 18 17 18 17 17 17 17 17 17 16 15 15 15 15 15 14 14 14 14 14 14 13 13 13 13 13 13 13 13 13 13 13 13 13 13 13 13 13 13 13 14 14 14 14 15 15 15 15 15 15 15 15 15 15 16 17 17 18 17
22 23 23 23 23 23 22 21 21 21 21 20 20 20 20 19 18 17 17 17 17 17 17 18 18 18 18 18 18 18 18 18 18 18 18 18 17 16 16 16 16 16 16 15 15 15 15 14 14 15 15 14 14 14 15 15 15 15 15 15 15 15 15 15 15 15 15 15 15 15 15 16 16 16 16 16 16 16 16 17 17 18 18 18 18
23 23 25 25 25 25 24 23 23 23 23 22 21 21 21 21 20 19 19 19 18 17 17 18 18 18 18 18 19 19 19 19 19 20 19 19 19 18 17 17 16 17 17 16 16 16 16 16 16 15 15 15 15 15 15 15 15 15 15 15 15 16 16 16 16 16 16 16 17 17 17 17 17 17 17 17 17 17 18 18 18 18 19 19 20
22 23 24 26 26 26 26 26 25 25 25 25 24 23 23 23 22 21 21 21 20 20 19 19 19 19 19 19 19 20 20 20 20 21 21 21 20 20 19 18 18 18 18 18 18 17 17 17 17 17 16 16 16 16 16 16 17 17 17 17 17 17 17 18 18 18 18 18 18 19 18 18 18 18 18 18 18 18 18 19 19 19 20 20 21
21 21 22 24 25 26 27 27 27 27 27 27 27 26 26 25 25 24 23 23 23 23 23 22 22 22 21 21 21 21 20 20 20 21 22 23 23 22 21 20 20 19 19 19 19 19 19 18 18 18 18 18 18 18 18 18 18 18 19 19 18 18 19 19 19 19 19 20 20 20 20 20 19 19 19 19 19 19 19 20 21 21 21 22 23
19 20 20 20 22 23 25 26 27 27 27 28 28 29 28 27 27 26 26 26 26 26 26 25 25 24 24 23 22 22 22 21 21 21 22 23 24 23 22 22 21 20 20 20 20 20 20 20 19 19 19 19 19 19 19 19 19 19 19 19 19 19 19 19 20 20 20 20 21 21 22 21 20 20 20 19 19 20 21 22 22 23 24 24 24
18 19 19 19 19 20 21 22 23 24 25 26 28 29 29 30 30 29 29 29 28 28 27 27 26 26 25 25 24 24 23 23 22 22 22 22 22 22 22 22 22 22 22 21 21 20 20 20 20 20 20 20 20 20 20 20 21 20 20 20 20 20 20 20 21 21 21 20 20 21 21 21 21 21 21 21 21 22 23 24 24 24 24 24 24
17 18 18 18 18 18 19 20 20 21 22 23 24 26 27 28 29 29 29 29 30 29 28 28 27 27 26 26 25 24 24 24 23 22 22 22 22 22 22 23 23 23 22 22 22 22 21 21 21 21 21 21 21 21 21 21 21 21 21 21 21 21 22 22 22 21 21 21 22 22 22 22 22 22 22 23 23 24 24 25 25 25 25 24 24
15 16 17 17 18 17 17 17 18 18 19 19 20 21 22 23 24 24 25 25 26 27 27 27 27 27 27 26 25 24 24 23 23 23 23 24 24 23 23 23 23 23 23 23 23 23 23 23 22 23 23 23 23 22 22 22 22 22 22 22 22 22 22 22 22 22 22 23 23 23 23 23 23 23 24 24 25 25 25 26 25 25 25 25 24
15 15 15 16 16 17 17 16 16 16 17 17 17 17 18 19 19 19 19 19 20 21 22 23 25 26 27 27 27 26 25 24 23 24 24 24 24 24 23 23 23 23 23 23 23 24 24 23 22 22 23 23 22 23 22 22 22 22 22 22 23 23 22 22 23 23 23 24 24 24 24 24 24 25 25 26 26 26 25 25 25 24 24 24 25
15 15 15 15 16 16 16 16 16 16 16 16 16 16 16 17 17 17 17 17 17 18 19 20 22 23 25 26 26 26 26 25 23 23 24 24 24 24 23 22 22 23 23 23 23 23 23 23 23 22 22 22 22 22 22 22 22 22 23 23 23 23 24 24 25 25 25 25 25 25 25 25 25 26 26 26 26 26 25 24 24 24 24 24 24
16 16 16 16 16 16 16 16 15 16 16 16 16 16 16 16 16 16 16 16 16 16 16 17 17 18 20 21 21 22 23 23 21 21 22 22 23 23 23 22 22 22 22 22 22 22 22 22 22 22 22 22 23 22 23 23 23 23 23 24 24 24 25 25 25 26 26 25 25 25 25 25 25 26 26 26 26 25 25 25 25 25 24 24 24
17 17 17 17 16 16 17 17 16 16 16 16 16 16 16 16 16 15 15 15 15 15 15 15 14 14 15 16 16 17 18 18 18 19 19 19 19 20 21 22 23 23 22 21 21 21 21 21 21 21 21 22 23 23 23 24 24 23 24 24 24 24 25 25 25 25 25 25 25 25 25 25 25 25 25 25 25 25 25 25 25 25 25 24 24
18 18 18 17 17 17 17 17 17 16 16 16 15 15 15 15 15 14 14 14 14 14 14 14 14 13 13 12 13 14 15 15 16 16 16 16 17 18 19 20 21 22 23 23 22 22 22 22 22 22 22 23 24 24 25 25 24 24 24 24 24 24 24 24 24 24 25 24 24 24 24 25 25 24 24 25 25 25 25 25 25 25 25 24 24
19 19 18 18 18 17 17 16 17 17 16 16 16 15 15 15 15 15 14 13 13 13 13 13 13 13 13 12 12 12 13 13 13 13 13 14 14 15 16 17 18 19 21 23 24 24 24 24 24 24 24 25 25 26 25 25 25 25 25 24 24 23 23 23 23 23 23 24 24 24 23 23 23 23 24 24 24 24 24 24 24 24 24 24 24
19 19 19 19 19 18 18 17 17 17 17 17 16 16 16 16 16 16 15 15 14 13 13 13 12 12 12 12 12 13 13 13 12 12 12 13 13 13 13 14 15 16 17 19 21 22 23 24 24 25 25 24 24 24 24 24 24 24 24 24 24 23 23 23 22 22 23 23 23 23 23 23 23 23 24 24 24 24 24 24 24 24 24 24 24
19 19 19 19 19 19 19 19 18 18 18 18 18 17 17 17 17 17 16 16 16 15 15 14 14 13 13 12 13 13 14 14 14 14 13 14 14 14 14 14 14 15 14 14 15 17 18 19 20 21 21 20 20 20 21 21 21 22 22 22 22 22 22 22 22 22 22 22 22 22 23 23 24 24 24 24 24 24 24 24 24 24 24 25 25
20 19 19 19 19 20 20 19 19 19 19 19 19 18 18 18 17 17 17 17 17 17 17 17 16 15 15 14 14 14 14 14 15 15 15 15 15 15 15 15 15 15 15 14 14 15 16 16 17 17 17 17 18 18 18 19 19 19 20 20 20 20 21 21 21 20 21 21 22 22 23 23 24 24 24 24 24 24 24 24 25 25 25 25 25
21 21 20 20 20 20 21 20 20 20 20 20 19 19 18 17 16 17 17 16 16 16 16 16 16 16 16 15 15 15 15 16 16 16 16 16 16 17 17 17 17 17 17 17 17 17 17 17 17 16 16 16 16 17 17 17 17 18 19 19 19 20 20 20 20 20 21 22 23 24 24 24 25 25 25 24 24 24 25 25 25 25 25 25 25
21 21 21 20 20 21 21 21 21 20 20 19 19 19 18 18 18 18 17 17 17 16 16 16 16 16 16 16 16 16 16 17 17 17 17 17 17 18 18 18 18 18 18 19 19 19 18 18 18 18 18 18 18 18 18 18 18 18 18 18 19 20 20 20 21 22 23 24 24 25 25 25 25 25 25 25 25 25 25 26 26 26 26 26 26
21 21 21 21 21 21 21 21 21 21 20 20 20 20 19 19 19 19 19 19 19 18 18 18 18 18 18 18 18 18 18 19 19 19 19 20 20 20 20 20 20 20 20 20 20 20 20 20 20 20 20 20 21 21 20 20 20 20 19 20 20 21 21 21 22 23 24 25 25 25 25 26 26 25 25 26 26 26 26 26 26 27 27 27 27
20 20 20 21 22 21 21 21 22 22 22 22 22 22 21 20 20 20 20 20 20 20 20 20 20 19 20 20 20 20 20 21 21 22 22 21 21 21 22 22 21 21 21 21 21 21 21 21 22 22 22 21 22 22 21 21 21 21 21 21 22 22 22 22 23 24 24 25 25 25 25 26 25 25 26 26 27 27 27 27 27 27 27 27 27
18 18 19 19 20 21 21 21 21 22 22 22 23 23 23 22 22 21 21 21 20 20 20 21 21 20 20 21 22 22 22 23 23 23 23 23 23 23 23 23 23 23 22 22 22 22 22 22 22 23 23 23 23 22 22 22 22 22 22 22 23 23 23 24 24 25 24 25 25 25 25 26 26 26 27 27 27 27 27 27 28 28 28 28 28
18 18 19 19 19 19 20 20 20 20 20 21 22 22 23 23 23 23 23 22 22 21 21 21 21 21 21 21 22 23 24 24 24 24 24 24 24 24 24 24 24 24 23 23 23 23 23 22 22 23 23 23 23 23 23 23 23 23 23 23 23 24 24 24 24 24 24 25 26 26 26 27 27 27 27 27 27 28 28 28 28 28 28 28 29
19 19 20 21 21 20 19 20 20 20 21 21 21 21 22 23 23 23 23 23 23 23 23 22 22 22 22 22 22 23 24 25 25 25 25 25 25 25 25 25 24 23 23 23 24 24 24 24 23 23 23 23 24 24 24 24 24 24 25 24 24 25 25 25 25 25 26 26 27 27 27 27 28 28 28 28 28 28 28 28 29 29 29 29 29
20 19 19 20 21 22 21 21 21 21 21 22 23 22 22 23 23 24 24 24 24 24 24 24 24 24 23 23 23 24 24 25 25 25 25 25 25 25 25 25 25 24 24 25 25 25 25 25 25 25 24 25 25 25 25 26 26 26 26 26 26 26 26 26 26 27 27 28 28 28 28 29 29 29 29 29 29 29 29 29 29 30 30 30 31
22 22 21 21 21 22 22 23 23 22 23 23 24 24 23 24 24 24 24 24 24 25 25 24 25 25 25 24 25 25 25 24 25 25 25 24 24 25 25 25 25 25 26 26 26 26 26 26 26 26 26 26 26 26 26 26 26 26 27 27 27 27 28 28 29 29 29 29 29 29 30 30 30 30 30 30 31 30 30 30 31 31 32 32 33
24 24 23 23 23 22 22 22 23 23 24 24 25 25 25 25 25 25 25 25 25 26 26 25 25 25 25 25 25 25 25 25 25 25 25 24 24 25 25 26 26 26 26 26 26 26 26 26 26 27 28 28 28 28 28 27 27 27 28 28 28 28 29 29 29 30 30 30 30 30 31 31 31 31 31 32 32 32 32 32 33 33 34 35 35
26 25 25 25 24 24 24 23 23 23 24 24 25 25 25 26 26 26 26 26 26 26 26 26 26 25 25 25 26 26 26 26 26 26 26 26 26 26 26 26 27 27 26 26 26 26 26 26 26 26 27 27 27 27 27 28 28 29 29 29 29 29 29 30 30 30 31 31 31 31 31 32 32 32 33 33 33 34 34 35 36 36 37 37 37
26 25 25 25 25 25 25 25 25 25 24 24 25 25 25 26 26 26 27 27 27 27 27 27 27 26 26 27 27 28 28 29 28 27 27 27 27 27 27 27 27 27 27 27 27 27 27 27 27 27 27 27 27 27 27 27 28 29 29 29 30 30 30 31 31 32 32 32 33 33 34 34 34 34 35 35 36 36 37 37 38 38 38 39 39
27 26 25 25 25 25 26 26 26 26 26 26 26 26 25 25 26 26 27 27 27 27 27 28 28 28 28 29 29 29 30 30 29 29 28 28 28 28 28 28 28 28 28 28 28 28 28 28 29 29 29 29 29 29 29 28 29 29 30 30 31 31 31 32 33 33 34 34 34 35 35 35 35 36 36 37 38 38 39 40 40 40 41 41 42
27 27 26 26 25 25 25 26 26 26 27 27 28 27 27 26 26 26 26 27 27 27 27 27 27 28 28 28 29 29 29 29 29 29 29 29 28 28 28 28 29 29 29 29 29 29 29 29 30 30 30 30 30 30 30 30 30 31 31 31 32 32 33 33 34 35 35 35 35 36 36 36 36 37 37 38 39 40 40 41 41 42 43 43 44
28 28 27 27 27 26 26 25 25 26 26 27 28 28 28 28 28 27 27 27 27 27 27 27 27 27 27 27 27 28 27 28 29 29 29 28 28 27 27 28 28 29 29 29 29 30 30 30 31 31 31 31 32 31 31 31 32 32 32 33 33 34 34 34 35 35 36 36 37 37 38 38 38 39 39 40 40 41 41 42 43 44 45 46 46
30 29 29 28 28 27 27 27 27 27 26 26 27 28 28 29 29 28 28 27 27 27 27 27 28 28 27 27 27 27 27 27 28 28 28 28 28 28 28 28 28 29 30 30 30 31 31 32 32 32 32 33 33 33 33 33 33 34 34 35 35 35 35 36 36 36 37 37 38 38 39 40 41 41 42 43 43 44 45 45 46 47 47 47 47
31 31 31 30 29 29 28 28 28 28 28 28 28 28 28 29 29 29 28 28 27 27 27 28 28 29 28 28 28 27 27 28 28 29 29 29 29 29 29 29 29 29 30 30 31 31 31 32 32 32 33 33 34 34 34 35 35 36 36 36 36 36 36 37 37 37 38 38 39 40 41 42 43 44 44 45 46 46 47 47 48 47 47 48 48
32 32 31 31 31 30 29 29 28 28 28 28 28 28 28 29 29 28 28 28 28 28 29 29 29 29 29 29 28 28 28 29 29 29 29 29 29 29 29 29 30 30 30 30 31 31 31 31 32 32 32 33 34 34 35 35 36 36 35 36 36 36 37 37 38 38 39 40 40 41 42 43 44 45 45 46 46 47 47 47 48 48 48 49 49
33 32 32 32 32 31 30 29 29 28 28 28 28 28 29 29 29 29 29 29 29 29 30 30 29 29 30 30 29 29 29 29 29 30 30 30 30 31 31 30 31 31 31 31 31 31 31 31 32 32 33 33 33 34 34 35 35 34 35 35 36 36 37 38 38 39 40 41 42 42 43 44 45 45 46 46 47 47 47 48 48 48 48 49 49
32 32 32 32 32 31 31 30 29 29 29 29 29 29 29 29 29 29 29 30 30 30 30 30 30 30 30 30 30 30 30 30 30 30 30 31 31 31 32 32 32 32 32 32 32 32 32 32 32 33 33 33 34 34 34 34 34 34 35 36 36 37 38 38 39 40 41 42 42 43 44 45 45 46 46 47 47 47 48 48 48 48 48 49 49
32 32 32 32 32 31 31 30 30 30 31 31 31 30 30 30 30 29 29 30 30 29 29 30 30 30 30 30 30 31 31 31 31 31 31 31 31 31 32 32 33 33 33 33 33 33 32 33 33 33 33 34 34 34 34 34 35 35 36 36 37 37 38 39 40 41 42 43 44 44 45 46 46 47 47 47 48 48 48 48 48 48 49 49 49
31 31 32 32 31 31 31 31 30 30 30 30 30 30 30 30 30 30 30 30 30 30 30 30 30 30 30 30 31 31 31 31 31 31 31 31 31 31 32 32 32 32 33 33 33 33 33 33 33 33 33 34 34 34 34 35 35 36 36 37 37 38 39 40 41 43 44 44 45 46 47 47 47 47 47 48 48 48 48 48 48 48 48 48 49
30 30 31 30 30 30 30 30 30 30 30 30 30 30 30 30 30 30 31 30 30 30 30 30 30 30 30 30 30 30 31 31 31 31 31 31 31 31 31 32 32 32 32 33 33 32 32 33 33 33 33 33 34 34 35 35 35 36 37 38 39 40 41 42 43 44 45 46 46 47 47 47 47 47 47 47 47 47 48 48 48 48 48 48 48
30 30 29 29 29 29 29 30 30 31 30 30 30 30 30 31 31 31 31 31 31 31 31 31 31 31 31 31 31 31 31 31 31 31 31 31 31 31 31 31 31 31 31 31 31 31 32 32 32 33 33 33 34 34 35 35 36 37 38 39 40 41 42 43 44 45 46 46 46 46 46 46 46 46 46 46 46 47 47 47 47 47 47 48 48
Wind_Direction
209 211 211 211 212 212 212 213 214 215 216 217 218 220 220 221 222 222 223 224 224 224 227 226 226 228 229 229 228 228 229 228 228 229 229 231 235 240 244 244 244 247 250 251 251 252 257 261 263 262 262 264 267 271 274 278 284 286 286 289 290 292 295 297 300 304 310 313 314 316 318 320 322 325 326 328 328 327 327 328 329 331 332 334 337
211 212 213 213 213 214 215 215 215 216 218 219 220 222 222 223 226 226 226 227 226 227 230 229 229 231 231 232 231 230 232 232 232 233 233 234 236 241 245 245 247 250 252 254 256 257 259 263 266 266 265 267 269 272 275 278 282 285 287 289 290 294 298 299 302 306 311 315 317 319 321 322 323 324 326 327 328 327 327 329 330 331 332 334 336
212 212 214 215 215 216 217 217 218 219 219 221 222 223 224 225 227 228 228 229 229 230 231 231 232 233 233 234 233 233 235 236 236 237 237 237 238 241 243 244 246 249 252 255 256 258 261 263 266 267 267 268 270 272 275 278 281 285 289 291 294 297 299 300 303 308 312 317 320 321 322 322 324 326 328 328 327 327 328 329 330 331 332 333 335
214 214 215 216 217 219 220 220 220 221 222 223 224 225 227 228 227 229 231 231 231 233 234 234 235 235 235 236 236 236 238 238 239 240 240 241 242 242 243 243 245 249 252 255 256 258 261 263 265 268 268 268 269 272 275 277 281 285 288 290 295 297 298 299 303 308 312 315 318 320 321 323 325 327 327 326 326 326 327 328 329 331 333 333 333
215 216 216 217 219 221 222 222 223 224 224 226 227 228 229 230 230 231 233 233 233 234 235 236 237 236 236 237 238 238 239 240 242 242 242 243 244 245 245 245 247 249 251 255 256 257 259 261 263 265 267 269 269 272 275 276 280 284 285 287 292 295 296 297 300 304 308 310 314 317 320 322 323 323 323 322 322 323 323 324 327 330 330 329 330
217 218 219 219 221 223 224 225 225 226 226 227 229 230 231 232 233 233 234 235 236 236 237 238 239 239 238 238 240 240 240 242 243 244 244 243 243 245 247 247 247 249 251 253 255 256 257 259 262 263 265 267 269 271 274 275 278 281 283 285 289 291 293 294 297 300 304 306 309 312 314 315 317 317 319 320 319 319 319 321 324 326 327 327 329
220 221 222 223 224 225 225 227 227 228 229 230 231 231 232 234 235 234 233 235 237 238 238 239 241 240 239 240 241 241 241 242 244 245 245 245 244 246 248 249 249 251 253 254 255 256 258 259 261 262 263 264 266 269 271 273 276 279 281 283 286 288 290 293 296 299 301 303 305 307 308 310 312 314 316 317 316 317 318 319 322 325 327 327 328
223 224 225 226 227 227 228 229 231 231 231 232 233 233 234 235 237 236 235 236 239 240 240 240 241 241 240 241 242 242 243 243 244 245 245 245 246 246 247 249 250 252 254 255 255 256 257 258 259 261 263 263 265 269 270 272 274 277 279 281 283 286 288 291 293 296 298 299 301 303 305 308 310 312 313 314 315 317 319 319 320 322 324 324 325
227 227 227 227 229 230 230 232 234 234 234 235 235 235 236 237 239 239 238 238 240 241 241 241 241 241 241 242 244 244 244 244 245 245 245 245 246 246 248 248 249 251 253 256 257 257 258 258 259 261 263 262 262 264 267 270 274 276 279 280 282 283 285 287 289 292 294 296 298 300 302 304 307 309 311 313 314 315 317 318 319 319 320 321 322
229 230 231 230 231 232 233 234 235 235 236 236 237 236 237 238 239 240 240 240 241 242 242 243 243 243 243 243 244 244 245 245 246 246 245 246 246 247 248 249 250 251 253 255 257 258 258 259 261 262 263 262 262 262 264 267 272 275 277 279 280 281 283 285 287 289 291 293 295 297 299 301 304 306 308 310 311 313 315 316 316 317 318 318 319
232 233 234 234 234 234 235 236 236 235 235 236 238 238 238 238 239 240 241 241 242 244 244 244 244 245 246 245 246 246 246 246 247 247 246 245 246 248 249 250 251 253 253 255 257 258 258 261 263 263 263 263 264 264 265 267 270 272 274 276 276 277 279 282 284 287 289 291 293 295 296 298 301 304 305 306 307 309 311 312 313 314 316 316 316
237 238 237 237 237 237 238 239 238 237 236 237 238 239 240 240 241 242 243 243 243 245 245 244 245 246 247 248 249 249 248 247 247 247 245 244 246 249 250 250 252 254 255 256 258 258 259 262 264 264 264 264 265 265 265 267 269 271 273 274 275 276 277 279 282 284 287 289 291 292 294 296 299 301 302 303 304 306 308 309 310 311 312 313 312
239 241 239 239 239 239 240 241 242 241 239 239 240 241 243 243 243 244 244 244 244 246 247 247 247 248 249 250 251 251 251 252 252 249 246 244 245 248 250 251 252 254 255 257 258 258 260 262 263 263 264 265 267 267 267 267 268 270 273 275 276 276 277 278 279 281 283 286 287 289 291 293 295 297 299 301 302 304 305 307 308 309 309 309 308
241 242 242 241 240 241 242 244 245 244 243 242 242 243 244 244 245 246 246 246 246 248 249 249 249 250 250 251 252 252 253 255 256 253 249 246 246 246 248 251 252 254 255 257 258 259 260 262 263 264 265 266 267 268 268 268 269 270 273 275 277 277 277 278 279 280 282 283 284 286 289 290 291 294 297 299 299 300 302 304 305 305 305 305 306
241 240 241 241 241 241 242 243 245 246 246 245 244 244 245 245 246 247 248 249 250 250 250 250 249 250 251 252 252 253 253 254 255 255 253 249 247 246 247 250 253 255 255 256 259 260 261 262 263 264 266 267 269 269 269 268 269 270 272 274 275 276 277 279 281 282 283 283 283 285 288 289 289 291 294 296 297 298 300 302 303 303 304 304 305
240 240 240 241 242 242 241 243 245 247 248 247 246 245 245 246 247 248 249 251 251 251 250 250 250 250 250 251 251 252 253 253 253 253 253 250 248 247 248 250 253 255 256 256 257 259 260 261 262 264 266 267 269 271 271 270 269 270 271 272 274 276 277 279 281 282 283 283 283 284 286 287 287 288 291 293 295 297 299 300 301 303 303 303 304
243 243 241 241 243 243 243 243 245 247 248 248 247 246 245 247 248 249 250 250 250 249 249 249 249 249 249 250 250 251 251 252 252 252 251 250 249 249 250 252 254 255 256 256 256 258 260 261 263 265 266 267 269 270 272 271 270 270 271 272 274 275 277 279 280 280 281 283 283 284 285 285 287 288 290 291 294 297 298 299 301 301 302 302 303
245 244 243 243 243 243 244 245 246 246 247 247 246 245 244 246 247 247 248 248 246 246 247 248 248 248 249 249 249 249 249 250 251 251 251 250 249 250 252 253 255 256 256 257 257 258 260 262 263 265 266 267 269 269 270 270 270 271 272 273 274 276 277 279 279 280 282 283 283 284 284 285 287 289 290 292 294 296 297 298 299 300 300 301 302
245 244 244 243 243 244 245 246 246 246 246 247 246 244 243 243 244 244 245 245 244 244 247 249 249 249 250 249 248 246 246 248 251 252 252 250 248 250 252 253 255 257 258 259 259 259 260 262 264 265 266 267 268 268 268 269 270 271 272 273 275 276 277 278 279 280 282 282 282 283 284 285 286 288 289 291 293 295 295 296 298 299 300 301 302
246 246 245 244 244 246 247 247 245 245 246 247 247 246 245 243 243 243 243 244 244 245 248 252 253 252 251 250 248 245 243 245 250 253 253 252 250 251 253 253 255 257 258 259 259 259 260 262 263 264 265 267 268 268 268 268 270 272 273 274 275 276 277 279 280 281 282 282 282 282 283 284 286 287 288 291 293 294 295 295 296 297 299 300 301
247 247 246 246 246 247 248 247 246 246 247 247 247 247 246 245 244 244 245 245 246 248 251 255 257 255 251 248 246 241 238 241 246 250 253 254 252 251 253 253 255 256 257 258 259 260 261 262 263 263 264 266 267 267 267 269 272 274 275 275 276 277 278 279 280 281 281 282 282 283 283 284 285 287 288 290 292 293 294 295 296 296 297 298 298
247 247 247 248 247 246 247 246 246 247 247 246 246 245 245 246 246 247 247 247 248 250 253 255 256 255 251 245 239 234 233 236 241 246 251 254 253 252 254 256 256 255 255 256 257 259 261 262 263 264 266 268 268 268 268 269 271 273 274 275 276 278 278 279 280 281 281 281 282 283 284 285 286 287 289 290 291 291 293 294 296 296 297 297 297
246 246 247 247 247 246 246 245 245 247 247 245 245 243 242 243 244 246 247 246 248 249 250 251 251 249 246 241 234 231 234 237 240 244 250 255 255 256 258 259 258 256 255 255 256 259 261 263 263 265 268 270 271 270 270 270 271 273 274 275 276 278 278 278 279 280 280 281 283 284 286 287 288 289 290 291 291 292 293 295 296 296 296 296 296
244 245 245 245 245 245 244 244 245 246 245 244 244 243 241 241 242 244 245 245 247 248 247 247 244 241 240 240 235 233 234 237 241 245 249 253 257 259 260 261 260 259 258 258 258 259 261 263 264 266 269 271 271 271 271 271 272 273 273 275 276 277 278 279 280 280 281 282 283 284 287 288 289 290 290 290 291 292 294 295 296 297 297 297 297
244 244 244 245 247 246 245 245 246 245 244 243 243 243 243 242 243 245 246 245 246 248 248 247 244 240 240 240 237 235 235 238 242 247 251 254 258 260 262 264 265 266 265 264 262 261 262 263 265 266 269 271 271 271 271 271 271 272 273 274 276 277 278 280 281 282 283 283 283 284 286 287 288 289 290 290 291 292 294 295 296 296 296 297 298
245 245 245 246 246 244 244 245 245 245 244 243 243 245 245 245 245 246 247 246 246 247 247 246 246 245 244 245 243 242 242 244 248 251 255 257 258 260 262 264 267 271 272 270 269 267 265 264 265 266 267 270 271 272 272 273 273 273 274 276 277 278 279 281 282 283 283 284 284 284 285 286 288 290 290 291 291 292 293 294 295 296 296 297 298
245 245 244 245 245 243 243 245 245 244 244 244 244 245 246 246 245 245 246 247 248 250 249 247 246 247 248 248 247 245 246 250 253 256 258 260 260 262 264 265 269 272 273 272 271 269 267 266 266 265 267 270 272 272 273 275 275 275 277 279 279 279 280 281 282 282 283 284 283 284 286 288 289 291 292 291 291 292 292 293 294 295 296 297 297
245 245 244 243 243 243 244 245 245 245 245 245 243 242 243 244 242 242 243 244 247 250 250 248 248 249 250 249 248 247 249 252 255 258 260 261 263 265 267 268 270 272 273 273 272 271 271 270 268 267 268 270 272 274 275 276 276 276 279 280 280 280 281 282 283 284 284 284 284 285 287 288 289 291 291 291 291 291 292 292 293 294 295 296 296
244 244 243 242 242 243 243 243 244 244 244 243 242 240 240 241 243 244 243 243 245 248 248 247 248 248 249 250 250 249 251 254 256 258 261 262 264 266 268 269 270 271 273 274 274 273 274 273 272 272 271 270 273 274 275 275 276 277 279 281 282 282 283 283 285 286 286 286 286 287 287 288 289 290 290 290 290 290 291 291 292 293 294 294 294
243 242 242 241 242 244 243 242 244 244 242 242 243 241 240 242 246 247 246 245 247 248 247 247 249 249 250 251 252 252 253 256 258 260 261 262 264 266 268 270 270 272 274 275 274 273 273 274 275 275 274 272 273 275 275 276 277 278 280 281 282 283 283 284 285 286 286 286 287 287 287 288 288 289 289 289 289 290 290 291 291 292 293 293 293
244 243 243 241 241 243 244 245 246 246 244 244 244 243 242 244 247 249 248 248 249 249 248 249 251 251 252 254 255 255 255 257 259 261 262 264 265 267 269 270 271 272 273 273 273 272 272 273 275 276 275 274 275 276 277 278 279 280 281 282 282 283 284 286 287 287 286 286 287 287 287 287 288 289 289 289 290 290 290 290 291 291 292 292 292
245 244 242 241 241 242 244 245 247 247 246 245 245 245 244 245 246 247 248 248 249 250 250 251 252 253 254 255 256 257 257 259 261 262 263 265 266 267 268 269 270 271 272 272 272 272 272 273 275 275 275 274 276 277 278 280 281 282 283 283 283 283 285 287 288 287 287 288 288 288 288 289 289 290 290 290 291 291 291 292 292 292 292 292 292
247 246 243 240 240 240 242 242 243 244 245 244 244 245 246 245 245 247 248 249 250 251 251 253 254 255 256 257 257 258 260 261 263 264 264 265 266 267 268 269 269 270 271 272 273 272 272 273 275 276 276 275 276 277 279 280 281 282 283 283 283 284 285 287 287 287 288 289 289 288 289 290 290 291 291 291 292 292 292 292 292 292 292 293 293
246 247 245 242 241 242 242 243 243 244 245 244 244 247 248 247 247 248 248 249 251 252 253 255 256 258 258 259 259 260 263 264 264 265 265 266 267 268 268 268 268 268 270 272 273 272 272 273 276 276 276 277 278 279 280 280 281 282 283 283 283 284 285 286 286 287 289 289 289 288 289 290 290 290 291 291 292 292 292 293 293 293 293 293 293
243 246 247 245 244 244 245 245 247 248 249 247 247 248 249 250 250 251 251 250 252 253 254 255 257 259 260 261 262 263 265 266 265 265 265 266 267 268 269 268 268 269 270 271 272 272 273 274 276 276 276 277 278 279 280 280 281 281 282 283 284 285 285 286 286 288 289 289 289 288 289 289 290 290 290 291 291 292 292 293 293 294 294 294 294
244 246 248 249 247 246 246 246 247 249 250 250 249 249 250 251 252 253 253 253 253 254 254 254 256 259 261 263 264 265 266 266 266 266 265 265 267 268 268 268 269 270 271 271 271 272 273 274 275 275 276 276 277 277 278 279 280 281 282 283 284 284 285 285 286 287 289 289 288 288 289 289 290 290 290 291 291 291 292 292 292 292 292 292 293
247 247 249 251 250 249 248 248 248 249 251 251 251 251 252 252 252 253 253 253 254 255 255 255 256 257 258 260 263 263 264 266 267 267 265 265 266 267 268 269 270 272 272 273 273 273 274 275 276 276 275 276 276 277 277 277 278 279 280 281 282 283 284 285 286 287 288 288 288 288 289 289 290 290 290 290 291 291 291 291 291 291 291 292 292
249 249 251 251 250 250 250 250 250 251 252 252 251 252 252 253 253 254 254 254 254 255 255 256 257 257 256 258 261 263 263 264 266 266 265 264 266 267 268 270 271 272 273 274 274 274 274 276 276 277 276 276 276 276 277 277 278 278 278 279 281 282 283 284 285 286 286 287 288 289 289 289 288 289 289 290 290 290 290 290 290 290 291 291 291
249 250 251 252 252 252 252 252 251 251 251 251 251 251 252 253 253 254 255 256 256 255 256 256 257 257 258 259 262 264 265 264 265 265 265 265 266 267 268 268 270 271 272 273 274 274 274 275 275 276 276 276 276 277 277 278 278 279 279 280 281 282 283 284 285 285 285 286 286 287 288 288 288 287 288 288 289 289 289 289 290 290 290 290 290
249 249 250 252 253 253 253 253 252 252 252 253 253 252 252 252 252 253 255 256 256 256 257 257 258 259 261 262 263 264 265 265 264 264 265 266 266 267 268 268 269 270 271 272 273 274 274 275 275 276 276 276 276 277 277 278 278 279 280 280 281 281 283 284 285 285 285 285 285 286 287 287 287 287 287 287 288 288 289 289 289 289 289 289 290
250 250 251 253 254 254 253 253 253 254 255 255 255 254 254 254 254 254 254 255 256 257 257 257 258 259 262 264 265 266 265 263 262 263 266 266 267 268 268 268 269 270 271 272 273 273 274 274 275 275 276 276 276 276 277 277 278 279 279 280 280 281 283 284 284 285 285 285 286 286 287 287 287 287 287 287 287 288 288 288 288 288 288 288 289
249 250 252 253 255 255 255 254 254 256 256 256 255 255 256 256 256 256 256 256 257 258 259 258 258 260 263 266 267 266 264 261 262 264 266 266 267 269 269 269 269 270 270 271 272 273 274 275 275 275 276 276 276 276 277 277 278 278 279 280 281 282 283 284 284 285 285 285 286 286 287 287 287 287 287 288 288 288 288 287 287 287 287 287 288
249 251 252 253 254 255 255 255 256 256 256 256 256 257 257 257 256 256 256 256 257 258 258 259 259 260 263 265 266 265 263 263 265 266 266 267 268 270 270 270 270 271 271 272 272 273 273 274 274 275 275 276 276 277 277 278 279 280 281 282 282 283 284 284 285 285 285 285 286 286 286 287 287 287 288 288 288 288 288 288 287 287 287 287 287
250 251 251 252 253 254 254 255 256 256 256 256 257 258 258 258 257 256 257 257 257 257 257 258 259 260 261 263 263 263 263 264 265 265 265 267 268 269 269 270 270 271 271 272 273 274 274 274 274 275 276 276 277 278 278 280 281 281 282 282 283 284 284 285 285 286 286 286 287 287 287 287 287 288 288 288 288 288 288 288 288 288 287 287 287
251 251 252 252 252 252 253 254 255 256 256 257 257 257 257 258 257 257 257 258 258 258 258 258 259 260 261 262 263 263 263 263 264 264 265 266 267 267 268 269 269 270 271 272 273 274 275 275 275 276 276 277 278 279 280 281 282 282 282 283 283 284 285 285 286 286 287 287 287 288 288 288 288 288 288 289 289 289 289 289 288 288 288 287 287
251 252 253 253 253 252 252 252 253 253 254 255 256 256 256 257 257 256 256 257 258 259 260 260 260 261 261 262 263 264 264 265 265 265 266 267 268 268 268 269 270 271 272 272 273 274 275 275 276 277 277 278 279 280 281 281 281 282 282 283 284 284 285 286 287 287 288 288 288 288 288 288 288 289 289 289 289 289 289 289 288 288 288 288 287
252 252 252 253 253 253 252 252 252 252 254 256 256 255 255 255 256 256 257 258 259 260 260 261 261 262 262 262 263 263 264 265 265 266 267 268 269 269 269 270 271 271 272 273 274 274 275 276 277 278 278 279 279 280 281 281 281 281 283 284 284 285 286 287 287 288 288 288 289 289 289 289 289 290 290 290 290 290 290 289 289 288 288 288 287
251 251 251 251 251 252 252 253 253 254 256 256 256 255 255 255 256 257 258 259 259 260 260 261 261 262 262 263 263 263 264 265 266 267 268 269 270 270 270 271 271 272 272 273 274 274 275 276 277 278 279 279 279 280 280 280 280 282 283 284 285 286 287 288 288 288 289 289 290 291 291 291 291 291 291 291 291 291 290 290 289 289 289 288 288
249 250 250 250 250 251 253 253 254 255 256 256 255 256 256 256 257 258 259 259 260 261 261 262 262 262 263 263 264 264 265 266 266 267 268 269 270 271 272 272 273 273 273 273 273 274 275 276 277 278 278 278 279 280 280 280 281 283 284 285 287 288 288 288 289 290 290 291 291 292 292 292 292 292 292 291 292 291 291 290 290 290 289 289 289
249 250 250 249 250 251 252 253 253 255 256 256 256 257 257 258 258 258 259 259 260 261 261 262 262 262 263 264 264 265 266 267 267 268 269 270 270 271 271 272 273 273 274 274 274 275 275 276 276 277 278 278 279 280 280 281 283 284 285 286 287 288 289 289 290 291 292 292 292 292 292 292 292 292 292 292 292 291 291 290 290 290 289 289 289
249 250 251 251 250 251 252 253 254 255 256 257 258 258 258 258 258 259 259 260 261 261 262 262 263 264 264 265 265 266 267 267 268 268 269 270 270 271 271 272 273 273 274 275 275 276 276 277 277 278 279 279 280 281 281 283 284 285 286 287 288 289 290 291 291 292 293 293 292 292 292 292 292 292 292 292 292 291 290 290 290 289 289 289 289